Weather History for Roatan, Honduras

Change the Weather History Date:

Tuesday, August 7, 2012

  Actual Average Record
Temperature  
Mean Temperature 77 °F -  
Max Temperature 80 °F 86 °F 91 °F (1998)
Min Temperature 74 °F 78 °F 73 °F (2000)
Cooling Degree Days 12    
Growing Degree Days 27 (Base 50)    
Moisture  
Dew Point 74 °F    
Average Humidity 87    
Maximum Humidity 94    
Minimum Humidity 79    
Precipitation  
Precipitation 1.97 in - - ()
Sea Level Pressure  
Sea Level Pressure 29.76 in    
Wind  
Wind Speed 9 mph ()    
Max Wind Speed 25 mph    
Max Gust Speed 37 mph    
Visibility 2.9 miles    
Events Rain    
Averages and records for this station are not official NWS values.
T = Trace of Precipitation, MM = Missing Value Source: Averaged Metar Reports

Daily Weather History Graph

Daily Weather History Graph

Search for Another Location

Airport:

Trip Planner

Search our weather history database for the weather conditions in past years. The results will help you decide how hot, cold, wet, or windy it might be!

Date:

Astronomy

Aug. 07, 2012 Rise Set
Actual Time 5:28 AM CST 6:14 PM CST
Civil Twilight 5:06 AM CST 6:37 PM CST
Nautical Twilight 4:39 AM CST 7:03 PM CST
Astronomical Twilight 4:12 AM CST 7:30 PM CST
Moon 10:03 PM CST (8/7) 10:10 AM CST (8/7)
Length of Visible Light 13h 31m
Length of Day
12h 46m
Waning Gibbous, 69% of the Moon is Illuminated
Aug 7
Waning Gibbous
Aug 9
Last Quarter
Aug 17
New
Aug 24
First Quarter
Aug 31
Full

Hourly Weather History & Observations

Time (CST) Temp. Heat Index Dew Point Humidity Pressure Visibility Wind Dir Wind Speed Gust Speed Precip Events Conditions
6:00 AM 78 °F - 74 °F 84% 29.78 in 5 mi NW 2.3 mph - -   Overcast
6:00 AM 78.8 °F - 73.4 °F 83% 29.77 in 5.0 mi NW 2.3 mph - N/A   Overcast
7:00 AM 80.6 °F 86.2 °F 75.2 °F 84% 29.77 in 2.5 mi SW 5.8 mph - N/A   Overcast
8:00 AM 78.8 °F - 75.2 °F 89% 29.77 in 1.9 mi WSW 10.4 mph - N/A   Heavy Drizzle
9:00 AM 79 °F - 75 °F 85% 29.79 in 1 mi WSW 18.4 mph - - Rain Heavy Rain
9:00 AM 78.8 °F - 75.2 °F 89% 29.77 in 0.6 mi WSW 16.1 mph 36.8 mph N/A Rain Heavy Rain
10:00 AM 78.8 °F - 75.2 °F 89% 29.77 in 3.1 mi WSW 25.3 mph - N/A   Light Drizzle
11:00 AM 75.2 °F - 73.4 °F 94% 29.77 in 0.6 mi West 11.5 mph - N/A Rain Rain Showers
12:00 PM 78 °F - 75 °F 87% 29.79 in 1 mi West 17.3 mph - - Rain Light Rain
12:00 PM 77.0 °F - 75.2 °F 94% 29.77 in 1.2 mi West 17.3 mph - N/A Rain Light Rain
1:00 PM 78.8 °F - 75.2 °F 89% 29.77 in 1.2 mi WSW 18.4 mph - N/A Rain Light Rain
2:00 PM 77.0 °F - 75.2 °F 94% 29.74 in 1.2 mi WSW 11.5 mph - N/A Rain Light Rain
3:00 PM 79 °F - 75 °F 85% 29.73 in 3 mi WSW 17.3 mph - - Rain Light Drizzle
3:00 PM 78.8 °F - 75.2 °F 89% 29.71 in 3.1 mi WSW 17.3 mph - N/A   Light Drizzle
4:00 PM 78.8 °F - 75.2 °F 89% 29.71 in 6.2 mi WSW 11.5 mph - N/A   Light Drizzle
5:00 PM 80.6 °F 85.4 °F 73.4 °F 79% 29.71 in 6.2 mi WSW 11.5 mph - N/A   Light Drizzle
6:00 PM 78.8 °F - 73.4 °F 83% 29.74 in 6.2 mi West 5.8 mph - N/A   Light Drizzle
7:00 PM 78.8 °F - 73.4 °F 83% 29.77 in 5.0 mi NW 2.3 mph - N/A   Light Drizzle
8:00 PM 75.2 °F - 71.6 °F 89% 29.80 in 1.9 mi West 6.9 mph - N/A Rain Light Rain